GW4079 Weather Reports


Display with metric or nautical units.
time (UTC)temp
F
wind
direction
speed
MPH
gust
MPH
rain 1hr
in
rain 24hr
in
rain mn
in
humidity
%
barometer
mb
20260831183052 70 286 10.0 16.0 0.00 0.00 0.00 40 1017.4
20260831181556 69 274 6.0 17.0 0.00 0.00 0.00 42 1017.4
20260831180054 70 326 12.0 17.0 0.00 0.00 0.00 41 1017.3
20260831174602 69 297 13.0 18.0 0.00 0.00 0.00 42 1017.4
20260831173128 69 296 11.0 18.0 0.00 0.00 0.00 42 1017.4
20260831171555 68 313 10.0 16.0 0.00 0.00 0.00 45 1017.4
20260831170051 67 330 11.0 16.0 0.00 0.00 0.00 47 1017.6
20260831164603 66 308 10.0 18.0 0.00 0.00 0.00 47 1017.4
20260831163103 66 310 11.0 17.0 0.00 0.00 0.00 47 1017.3
20260831161603 65 329 11.0 18.0 0.00 0.00 0.00 47 1017.3
20260831160103 64 281 11.0 19.0 0.00 0.00 0.00 48 1017.1
20260831154556 63 289 15.0 20.0 0.00 0.00 0.00 48 1017.0
20260831153041 62 299 15.0 21.0 0.00 0.00 0.00 49 1017.0
20260831151534 61 313 16.0 23.0 0.00 0.00 0.00 49 1016.9
20260831150035 60 305 17.0 22.0 0.00 0.00 0.00 50 1016.8
20260831144534 59 303 15.0 24.0 0.00 0.00 0.00 53 1016.5
20260831143035 57 277 13.0 18.0 0.00 0.00 0.00 57 1016.2
20260831141534 54 294 11.0 14.0 0.00 0.00 0.00 62 1016.1
20260831140037 52 281 9.0 13.0 0.00 0.00 0.00 67 1016.3
20260831134536 51 279 10.0 14.0 0.00 0.00 0.00 69 1015.9
20260831133038 50 286 10.0 14.0 0.00 0.00 0.00 70 1015.9
20260831131535 49 287 10.0 14.0 0.00 0.00 0.00 72 1015.7
20260831130035 48 271 8.0 13.0 0.00 0.00 0.00 72 1015.5
20260831124550 49 281 9.0 13.0 0.00 0.00 0.00 72 1015.4
20260831123034 49 284 12.0 15.0 0.00 0.00 0.00 72 1015.1
20260831121536 46 292 8.0 11.0 0.00 0.00 0.00 78 1015.3
20260831120044 46 267 8.0 12.0 0.00 0.00 0.00 76 1015.0
20260831114546 47 275 9.0 14.0 0.00 0.00 0.00 74 1015.0
20260831113036 48 284 11.0 15.0 0.00 0.00 0.00 73 1014.7
20260831111534 48 274 9.0 12.0 0.00 0.00 0.00 73 1014.8
20260831110038 48 272 8.0 12.0 0.00 0.00 0.00 73 1014.8
20260831104547 49 274 10.0 16.0 0.00 0.00 0.00 70 1014.7
20260831103037 49 280 12.0 17.0 0.00 0.00 0.00 70 1014.4
20260831101534 50 284 11.0 16.0 0.00 0.00 0.00 69 1014.1
20260831100042 49 274 12.0 16.0 0.00 0.00 0.00 70 1014.0
20260831094534 47 271 8.0 11.0 0.00 0.00 0.00 76 1014.2
20260831093041 47 250 2.0 13.0 0.00 0.00 0.00 74 1014.3
20260831091534 48 268 6.0 10.0 0.00 0.00 0.00 75 1014.3
20260831090036 48 275 6.0 9.0 0.00 0.00 0.00 74 1014.2
20260831084535 48 273 0.0 4.0 0.00 0.00 0.00 74 1014.1
20260831083044 48 273 0.0 3.0 0.00 0.00 0.00 74 1013.9
20260831081536 48 273 3.0 7.0 0.00 0.00 0.00 73 1013.7
20260831080034 49 285 4.0 8.0 0.00 0.00 0.00 71 1013.6
20260831074540 49 254 3.0 5.0 0.00 0.01 0.00 70 1013.8
20260831073051 51 263 6.0 11.0 0.00 0.01 0.00 67 1013.8
20260831071539 51 277 8.0 15.0 0.00 0.01 0.00 66 1013.8
20260831070047 52 247 8.0 14.0 0.00 0.01 0.00 65 1013.6
20260831064540 53 263 11.0 16.0 0.00 0.01 0.00 63 1013.6
20260831063042 53 265 11.0 14.0 0.00 0.01 0.00 62 1013.8
20260831061537 53 265 10.0 15.0 0.00 0.01 0.00 61 1013.7
20260831060044 55 263 10.0 17.0 0.00 0.01 0.00 58 1013.7
20260831054542 56 260 14.0 19.0 0.00 0.01 0.01 56 1013.6
20260831053046 55 274 13.0 18.0 0.00 0.01 0.01 57 1013.4
20260831051544 54 277 10.0 14.0 0.00 0.01 0.01 60 1013.4
20260831050107 55 290 12.0 18.0 0.00 0.01 0.01 57 1013.6
20260831044601 57 298 17.0 25.0 0.00 0.01 0.01 50 1013.4
20260831043045 58 279 19.0 27.0 0.00 0.01 0.01 48 1013.0
20260831041602 59 283 19.0 27.0 0.00 0.01 0.01 47 1013.1
20260831040049 59 269 18.0 29.0 0.00 0.01 0.01 46 1013.1
20260831034545 59 275 19.0 26.0 0.00 0.01 0.01 46 1013.0
20260831033042 59 264 15.0 24.0 0.00 0.01 0.01 47 1013.2
20260831031550 59 294 16.0 22.0 0.00 0.01 0.01 47 1013.1
20260831030055 59 277 15.0 21.0 0.00 0.01 0.01 46 1012.8
20260831024608 59 269 14.0 20.0 0.00 0.01 0.01 46 1012.9
20260831023044 60 273 14.0 22.0 0.00 0.01 0.01 46 1012.7
20260831021546 60 252 17.0 25.0 0.00 0.01 0.01 45 1012.3
20260831020107 61 280 21.0 31.0 0.00 0.01 0.01 43 1012.0
20260831014601 62 277 20.0 32.0 0.00 0.01 0.01 43 1012.0
20260831013045 62 269 26.0 34.0 0.00 0.01 0.01 42 1011.9
20260831011546 62 284 19.0 28.0 0.00 0.01 0.01 42 1012.1
20260831010050 62 286 21.0 29.0 0.00 0.01 0.01 42 1012.0
20260831004547 64 275 22.0 32.0 0.00 0.01 0.01 39 1012.1
20260831003044 65 283 23.0 35.0 0.00 0.01 0.01 39 1012.0
20260831001555 64 282 28.0 35.0 0.00 0.01 0.01 38 1011.7
20260831000049 64 274 27.0 36.0 0.00 0.01 0.01 38 1011.6
20260830234607 65 292 24.0 33.0 0.00 0.01 0.01 37 1011.7
20260830233054 66 265 26.0 34.0 0.00 0.01 0.01 35 1011.8
20260830231547 66 279 24.0 32.0 0.00 0.01 0.01 38 1011.5
20260830230046 65 256 24.0 31.0 0.00 0.01 0.01 40 1012.0
20260830224549 65 234 19.0 29.0 0.00 0.01 0.01 39 1012.0
20260830223056 64 254 23.0 29.0 0.00 0.01 0.01 39 1012.3
20260830221547 64 254 21.0 32.0 0.00 0.01 0.01 39 1012.3
20260830220059 64 236 26.0 34.0 0.00 0.01 0.01 38 1012.4
20260830214558 64 240 24.0 30.0 0.00 0.01 0.01 38 1012.4
20260830213048 64 259 23.0 38.0 0.00 0.01 0.01 40 1012.6
20260830211606 65 290 24.0 34.0 0.00 0.01 0.01 38 1012.4
20260830210055 64 252 18.0 33.0 0.00 0.01 0.01 38 1012.6
20260830204550 65 242 32.0 39.0 0.00 0.01 0.01 38 1012.0
20260830203047 65 266 31.0 41.0 0.00 0.01 0.01 38 1012.0
20260830201607 64 274 24.0 31.0 0.00 0.01 0.01 38 1012.4
20260830200054 65 263 16.0 23.0 0.00 0.01 0.01 36 1012.3
20260830194551 65 283 19.0 31.0 0.00 0.01 0.01 37 1012.1
20260830193057 65 282 16.0 29.0 0.00 0.01 0.01 35 1012.4
20260830191554 66 280 15.0 23.0 0.00 0.01 0.01 35 1012.5
20260830190051 67 279 14.0 29.0 0.00 0.01 0.01 31 1012.3
20260830184545 66 227 18.0 24.0 0.00 0.01 0.01 33 1012.4